CZ-6A DEB

Satellite information

Favourite Embed

Satellite Type and Status

DEBRISIN ORBIT

Key statistics

Satellite CZ-6A DEB at a glance.

Uptime

1129

Days in orbit

Revolutions

≈ 14.7

Per day

Orbit

SSO

Sun Synchronous Orbit

Inclination

98.6

Latest

Satellite identification and parameters

Extended collection of information and parameters for CZ-6A DEB.

Object identification

Identified? True

Debris? True

Object name: CZ-6A DEB

International designator: 2022-151HJ

Object number (NORAD): 54482

Object ID (CCSDS): 54482

Country: PEOPLES REPUBLIC OF CHINA (PRC)

Current information (Y/N): Y

RCS size: SMALL

Orbital parameters

Period: 97.945 minutes

Inclination: 98.6416 deg

SMA: 7038.526 km

Apoapsis: 712.728 km

Periapsis: 608.053 km

RAAN: 39.943 deg

Eccentricy: 0.00743583

Argument of periapsis: 139.8221 deg

Mean anomaly: 220.8513 deg

Mean motion: 14.70212817 rev/day

Mean motion (dot): 0.00025798 rev/day2

B* drag term: 0.0040974392 1/REarth

Two-line elements (TLE)

Creation date: Dec. 12, 2025, 10:14 a.m.

Reference frame: TEME

Reference center: EARTH

Epoch: Dec. 12, 2025, 2:02 a.m. UTC

TLE line 0: 0 CZ-6A DEB

TLE line 1: 1 54482U 22151HJ 25346.08531811 .00025798 00000-0 40974-2 0 9998

TLE line 2: 2 54482 98.6416 39.9430 0074358 139.8221 220.8513 14.70212817162890

Live tracking on map

Real-time ground track for satellite CZ-6A DEB.

In-orbit conjunctions

A list of the most updated potential collisions computed for object CZ-6A DEB.

Target Orbit TCA Probability of collision Miss distance Type
CZ-6A DEB LEO 2025-04-21 05:13:57 0.0002845696 50.0 (m) DEBRIS
CZ-6A DEB LEO 2024-12-16 06:40:17 0.0004775242 85.0 (m) DEBRIS

Associated space launch

Chinese satellite reported for atmospheric/ocean/environmental/spatial parameter research purposes, details TBD.

CZ-6A DEB was lifted into orbit during the mission ‘Long March 6A | Yunhai 3’, on board a Long March 6A space rocket.

The launch took place on Nov. 11, 2022, 10:52 p.m. from Launch Complex 9A.

For more information about the launch, click the button.

Launch to space Long March 6A | Yunhai 3
Long March 6A | Yunhai 3

Agency: N/A

Status: Launch Successful

Launch date: Nov. 11, 2022, 10:52 p.m. UTC

Rocket: Long March 6A

Launch pad: Launch Complex 9A

Location: Taiyuan Satellite Launch Center, People's Republic of China

...

Latest news about this satellite

There are no fresh news available about this satellite. Check back as we update our databases every day.


Newsletter sign-up

Weekly statistics, charts and insights to help you stay on top of the space industry.